Location: Unspecified
(33.7438°N, 118.3804°W)
Time: 15:58:27
(UTC+00:00)

Daily predictions for brighter satellites

Satellite Brightness Start Highest point End
(mag) Time Altitude Azimuth Time Altitude Azimuth Time Altitude Azimuth
Atlas Centaur 2 2.2 12:05:08 41° WSW 12:07:07 63° S 12:12:07 10° E
Cosmos 1544 Rocket 3.5 12:03:57 10° N 12:08:18 87° ENE 12:12:39 10° S
PAYLOAD B 4.1 12:06:46 10° N 12:12:16 75° WNW 12:17:36 11° SSW
Meteor PRIRODA 3.9 12:09:03 10° NNE 12:12:44 68° E 12:16:17 11° S
Meteor 1-4 Rocket 3.1 12:12:32 10° N 12:15:57 55° E 12:19:20 10° SSE
Cosmos 1455 Rocket 2.9 12:11:41 10° N 12:16:02 86° W 12:20:20 10° S
CZ-4B R/B 4.1 12:17:46 10° NNE 12:21:44 70° ESE 12:25:51 10° S
Skynet4D Del rocket 4.3 12:21:58 25° SW 12:24:49 41° S 12:29:56 10° ESE
Cosmos 468 Rocket 4.0 12:20:54 10° NNW 12:26:15 87° ENE 12:31:33 10° SSE
Cosmos 1486 Rocket 4.2 12:21:23 10° S 12:26:38 74° ESE 12:31:51 10° NNE
Meteor 1-13 Rocket 4.3 12:21:23 10° SSW 12:27:18 72° W 12:33:15 10° N
Okean-O 4.0 12:23:29 10° NNE 12:27:39 40° E 12:31:49 10° S
Meteor 1-12 Rocket 4.5 12:22:58 10° NNW 12:28:45 50° W 12:34:29 10° SSW
NOSS 3-2 (A) 3.9 12:24:33 10° SSW 12:30:18 62° ESE 12:36:32 10° NE
Cosmos 1536 Rocket 3.5 12:26:57 10° SSW 12:31:11 57° W 12:35:28 10° N
GPS 2-05 Rocket1 3.4 12:36:18 30° SW 12:36:53 33° SSW 12:39:41 10° SE
Cosmos 1844 3.9 12:33:54 10° SSW 12:39:26 74° ESE 12:45:05 10° NNE
Intelsat 5-2 Rocket 4.5 12:42:25 12° SSW 12:44:08 18° S 12:47:23 10° SE
Cosmos 1763 Rocket 3.8 12:39:48 10° NNW 12:45:06 72° ENE 12:50:24 10° SSE
CZ-4B R/B 3.5 12:40:27 10° N 12:45:23 41° WNW 12:50:21 10° SW
Meteor 2-4 Rocket 3.7 12:41:42 10° SSW 12:47:09 65° W 12:52:49 10° N
BREEZE-M DEB (TANK) 4.3 12:39:11 10° WNW 12:48:22 28° WSW 12:51:55 10° S
Cosmos 332 Rocket 4.4 12:49:11 10° NW 12:53:28 33° W 12:57:43 10° SSW
Okean 1-7 Rocket 4.1 12:49:48 10° S 12:54:14 67° E 12:58:45 10° NNE
Cosmos 1745 Rocket 4.1 12:48:27 10° N 12:54:50 88° E 13:01:09 10° S
USA 238 DEB 4.1 12:48:52 11° SW 12:55:17 46° NW 13:01:58 10° NNE
USA 238 4.1 12:48:55 11° SW 12:55:23 47° NW 13:02:06 10° NNE
Cosmos 1553 Rocket 4.0 12:50:17 10° SSW 12:56:17 55° W 13:02:15 10° N
GOES 2 Rocket 4.2 12:53:48 14° WSW 12:56:32 27° SSW 13:00:20 10° SE
Cosmos 371 Rocket 3.8 12:53:43 10° NW 12:58:10 36° W 13:02:33 10° SSW
Okean O Rocket 3.1 12:57:17 10° NNW 13:00:10 17° WNW 13:02:36 12° WSW
NOAA 6 4.1 12:55:45 10° NNE 13:00:58 90° WNW 13:06:09 10° SSW
Cosmos 1025 Rocket 2.9 12:57:06 10° S 13:01:21 86° W 13:05:39 10° N
USA 116 3.2 12:58:15 10° S 13:01:32 57° WSW 13:04:38 10° NNW
CZ-2C R/B 3.9 12:57:24 10° S 13:01:55 51° W 13:06:33 10° NNW
EO 1 Del DPAF 3.2 13:04:56 10° S 13:08:43 64° WSW 13:12:31 10° NNW
Meteor 2-9 Rocket 4.3 13:04:25 10° NNW 13:09:44 55° W 13:15:11 10° S
Okean 2 3.3 13:07:09 10° SSW 13:11:13 71° W 13:15:18 10° N
Centaur D-1AR AC-48 4.3 13:06:57 10° SW 13:11:24 16° S 13:14:07 10° SE
Cosmos 389 Rocket 3.1 13:08:17 10° N 13:11:43 61° E 13:15:09 10° SSE
Tiangong 1 0.6 13:11:41 10° WNW 13:14:21 85° SSW 13:17:01 10° ESE
S3M 4.4 13:10:24 10° SSW 13:16:14 41° W 13:22:11 10° N
Abrixas 3.1 13:15:28 10° SSW 13:17:48 41° SE 13:20:08 10° ENE
COSMOS 2406 3.3 13:13:04 10° NNW 13:18:52 84° WSW 13:24:37 10° SSE
Cosmos 1515 3.7 13:15:22 10° SSW 13:19:06 57° W 13:22:52 10° N
Delta 2 Rocket 4.2 13:13:43 10° W 13:19:21 77° N 13:25:10 10° E
COSMO-SKYMED 1 2.6 13:15:21 10° SSE 13:19:41 85° WSW 13:24:02 10° NNW
Meteor 1-31 Rocket 4.2 13:17:16 10° NNW 13:19:57 18° WNW 13:22:37 10° WSW
Cosmos 2278 Rocket 2.4 13:15:32 10° SSW 13:21:10 82° ESE 13:26:51 10° NNE
